Regional Weather Roundup
Issued by NWS Charleston, SC

Current Version | Previous Version | Text Only | Print | Product List | Glossary Off
Versions: 1 2 3 4 5 6 7 8 9 10 11 12 13 14 15 16 17 18 19 20 21 22 23 24 25 26 27 28 29 30 31 32 33 34 35 36 37 38 39 40 41 42 43 44 45 46 47 48 49 50

000
ASUS42 KCHS 301127
RWRCHS

REGIONAL WEATHER ROUNDUP
NATIONAL WEATHER SERVICE CHARLESTON SC
700 AM EDT SUN AUG 30 2015

NOTE: "FAIR" INDICATES FEW OR NO CLOUDS BELOW 12,000 FEET WITH NO
SIGNIFICANT WEATHER AND/OR OBSTRUCTIONS TO VISIBILITY.

NOT ALL STATIONS ARE QUALITY CONTROLLED BY THE NATIONAL
WEATHER SERVICE. USE DATA WITH CAUTION...ESPECIALLY
DEWPOINT OBSERVATIONS.

SCZ027-030-031-034>040-042>050-301200-
...SOUTHEAST SOUTH CAROLINA...

CITY           SKY/WX    TMP DP  RH WIND       PRES   REMARKS
N CHARLESTON   LGT RAIN  73  71  93 CALM      30.10R
WATERFRONT PRK   N/A     74  73  96 CALM      30.08R
MOUNT PLEASANT LGT RAIN  73  73 100 CALM      30.10F
JOHNS ISLAND   FAIR      73  73 100 CALM      30.09F
PINOPOLIS      NOT AVBL
MONCKS CORNER  DRIZZLE   72  68  88 CALM      30.10F
SUMMERVILLE    DRIZZLE   72  72 100 CALM      30.11S
BEAUFORT MCAS  LGT RAIN  74  73  97 NE5       30.09S
BEAUFORT ARPT  FAIR      73  73 100 CALM      30.09S
HILTON HEAD IS MOCLDY    75  73  94 NW5       30.10R
WALTERBORO     CLOUDY    73  72  94 CALM      30.11S
ALLENDALE      LGT RAIN  70  70 100 CALM      30.09S

...SOUTHERN MIDLANDS AND PEE DEE...

CITY           SKY/WX    TMP DP  RH WIND       PRES   REMARKS
GEORGETOWN     NOT AVBL
KINGSTREE      NOT AVBL
ORANGEBURG     LGT RAIN  71  62  73 NE5       30.12R
BARNWELL       LGT RAIN  70  68  94 NE5       30.12R
AIKEN          LGT RAIN  68  59  73 NE3       30.16R
MANNING        FAIR      68  63  83 CALM      30.12S
COLUMBIA       CLOUDY    74  62  66 CALM      30.12R
SUMTER         CLOUDY    69  62  78 NE5       30.12R
FLORENCE       CLOUDY    70  63  78 N5        30.13R
MYRTLE BEACH   MOCLDY    73  68  83 N8        30.13R
N MYRTLE BEACH LGT RAIN  72  70  93 NE5       30.12R

$$

GAZ063-065-086>088-099>101-113>116-118-119-134>141-150-301200-
...SOUTHEAST GEORGIA...

CITY           SKY/WX    TMP DP  RH WIND       PRES   REMARKS
SAVANNAH ARPT  CLOUDY    73  70  90 NE3       30.07S
HUNTER AAF     CLOUDY    73  73 100 E3        30.05S
FORT STEWART   CLOUDY    73  71  94 CALM      30.04R
STATESBORO     RAIN      71  32  23 CALM      30.07S
SYLVANIA       LGT RAIN  72  72 100 E7        30.08F
CLAXTON        NOT AVBL

...CSRA...CENTRAL AND FAR SOUTHEAST GEORGIA...

CITY           SKY/WX    TMP DP  RH WIND       PRES   REMARKS
THOMSON        CLOUDY    73  66  80 NE3       30.16R
AUGUSTA-BUSH   CLOUDY    72  66  81 CALM      30.10R
AUGUSTA-DANIEL CLOUDY    81  62  52 NE5       30.12R
SWAINSBORO     FAIR     N/A N/A N/A NE3       30.09R
VIDALIA        LGT RAIN  72  72 100 CALM      30.08R
EASTMAN        PTSUNNY   73  73 100 E3        30.09S
HAZLEHURST     PTSUNNY   74  74 100 CALM      30.07R FOG
ALMA           CLOUDY    73  72  96 SE3       30.06R
WAYCROSS       CLOUDY    76  76 100 CALM      30.06R
JESUP          FAIR      73  73 100 CALM      30.07R
BAXLEY         MOCLDY    73  72  94 CALM      30.07R
BRUNSWICK      CLOUDY    72  72 100 CALM      30.06S
SAINT SIMONS   CLOUDY    76  74  93 CALM      30.04F

$$

SCZ027-028-034-036>038-045-046-048>050-GAZ119-141-301200-
...LAKE AND SUPPLEMENTAL COASTAL OBSERVATIONS...

STATION/POSITION TIME  TEMP    WIND        PRES    WAVE   SWELL
                       AIR SEA DIR/SP/G            HT/PER HT/PER/DIR
                 (UTC) (F)     (DEG/KT/KT) (MB)    (FT/S) (FT/S/D)
UPR LAKE MARION  NOT AVBL
WINYAH BAY       1000   76     170/  1     1018.0S
LAKE MURRAY      1000   72      CALM  /  2 1019.6R
ACE BASIN NERRS  NOT AVBL
FORT PULASKI     NOT AVBL
SAPELO ISLAND    1100   75      80/  5     1018.0S

$$

ANZ835-935-AMZ111-154-330-350-352-354-370-450-454-472-301200-
...C-MAN AND BUOY OBSERVATIONS...

STATION/POSITION TIME  TEMP    WIND        PRES    WAVE   SWELL
                       AIR SEA DIR/SP/G            HT/PER HT/PER/DIR
                 (UTC) (F)     (DEG/KT/KT) (MB)    (FT/S) (FT/S/D)
BUOY 41004       1050   78 85  310/  6/  8 1018.6R   4/10   3/10
BUOY 41008       1050   80 84  150/  4/  6 1018.0F   4/11   3/ 90/11
FOLLY BEACH CMAN 1100   74     360/  3/  4 1019.1F
CAPERS NEARSHORE NOT AVBL
FRIPP NEARSHORE  NOT AVBL


STATION/POSITION TIME  TEMP    WIND        PRES    WAVE   SWELL
                       AIR SEA DIR/SP/G            HT/PER HT/PER/DIR
                 (UTC) (F)     (DEG/KT/KT) (MB)    (FT/S) (FT/S/D)
5E ST. MARYS GA  1021      86                N/A     5/11   2/110/11
FRYING PAN BUOY  1050   81 82   50/  6/  8 1020.0R   4/11   3/160/11
BUOY 41025       1050   78 82  340/  6/  8 1019.3R   3/10   3/ 90/10
CAPE LOOKOUT NC  1100   74     350/  9/ 10 1019.9R
BUOY 41002       1050   83 84  240/  6/  8 1020.0R   5/10   5/130/10
BUOY 41010       1020   85 85  120/ 16/ 19 1016.8F
ST AUGUSTINE FL  1100   80 84  150/ 15/ 17 1017.0F


$$



USA.gov is the U.S. government's official web portal to all federal, state and local government web resources and services.